Location: The Rolnick Observatory
(41.1711°N, 73.3275°W)
Time: 02:34:07
(UTC-04:00)

ISS - Pass Details

Date: 24 February 2019
Orbit: 406 x 411 km, 51.6° (Epoch: 23 March)

Event Time Altitude Azimuth Distance (km) Brightness Sun altitude
Exits shadow 05:48:42 - 230° (SW) 1,734 -1.1 -9.6°
Reaches altitude 10° 05:49:23 10° 229° (SW) 1,458 -1.4 -9.4°
Maximum altitude 05:52:38 80° 144° (SE) 416 -3.7 -8.8°
Drops below altitude 10° 05:55:51 11° 56° (NE) 1,437 -0.2 -8.2°
Sets 05:58:01 0° 55° (NE) 2,332 0.9 -7.8°
